Miscellaneous Local Product
Issued by NWS Hastings, NE

Home | Current Version | Previous Version | Text Only | Print | Product List | Glossary Off
Versions: 1 2 3 4 5 6 7 8 9 10 11 12 13 14 15 16 17 18 19 20 21 22 23 24 25 26 27 28 29 30 31 32 33 34 35 36 37 38 39 40 41 42 43 44 45 46 47 48 49 50

000
AXUS43 KGID 210202
MISGRI

GID CWA HOURLY WEATHER ROUNDUP
NATIONAL WEATHER SERVICE HASTINGS NE
900 PM CDT WED AUG 20 2014

NOTE: "FAIR" INDICATES FEW OR NO CLOUDS BELOW 12,000 FEET WITH NO
SIGNIFICANT WEATHER AND/OR OBSTRUCTIONS TO VISIBILITY.

...SOUTH CENTRAL NEBRASKA...

CITY           SKY/WX    TMP DP  RH WIND       PRES   REMARKS
GRAND ISLAND   CLEAR     82  72  71 SE10      29.74S
HASTINGS       PTCLDY    84  66  54 S10       29.75R
KEARNEY        PTCLDY    81  72  74 SE10      29.75R
ORD            CLEAR     82  73  74 SE10      29.71S
YORK           PTCLDY    82 N/A N/A SE8       29.75S
AURORA         CLEAR     81  73  77 SE7       29.75R
LEXINGTON      MOCLDY    83  72  69 SE5       29.74R
HOLDREGE       MOCLDY    84  66  54 SE12      29.75R
HEBRON         PTCLDY    81  68  65 SE7       29.76R

...NEBRASKA PANHANDLE...

CITY           SKY/WX    TMP DP  RH WIND       PRES   REMARKS
CHADRON        PTCLDY    79  49  34 W5        29.77R
ALLIANCE       PTCLDY    81  49  32 NW5       29.83R
SCOTTSBLUFF    PTCLDY    80  52  37 W7        29.85R
SIDNEY         CLOUDY    74  58  57 CALM      29.90R

...WESTERN AND NORTH CENTRAL NEBRASKA...

CITY           SKY/WX    TMP DP  RH WIND       PRES   REMARKS
VALENTINE      CLEAR     82  65  56 S9        29.71S
AINSWORTH      CLEAR     78  69  74 S6        29.74S
ONEILL         CLEAR     83  74  75 SE8       29.74R
BROKEN BOW     PTCLDY    79  72  79 E5        29.74R
IMPERIAL       LGT RAIN  77  61  57 W13G29    29.86R
NORTH PLATTE   MOCLDY    77  58  51 SE15G25   29.79R
MCCOOK         CLOUDY    84  57  39 SE9G21    29.74F

...EASTERN NEBRASKA...

CITY           SKY/WX    TMP DP  RH WIND       PRES   REMARKS
NORFOLK        CLEAR     82  70  66 SE9       29.74F
SO SIOUX CITY  MOCLDY    80  75  84 E8        29.76R
TEKAMAH        PTCLDY    82  74  76 SE10      29.76R
COLUMBUS       CLEAR     81  72  74 SE8       29.75F
ALBION         PTCLDY    80  72  76 SE6       29.74S
OMAHA EPPLEY   PTCLDY    83  72  69 SE15      29.77R
OFFUTT AFB     PTCLDY    81  77  86 SE10      29.78R
MILLARD        PTCLDY    83  74  75 SE9       29.77R
LINCOLN        PTCLDY    88  69  53 S10       29.76R HX  92
NEBRASKA CITY  PTCLDY    81  73  78 SE9       29.79R
BEATRICE       MOCLDY    85  71  61 SE7       29.77R HX  90
FALLS CITY     CLEAR     81  74  79 SE5       29.78S

...NORTHERN KANSAS...

CITY           SKY/WX    TMP DP  RH WIND       PRES   REMARKS
GOODLAND       MOCLDY    80  62  54 CALM      29.81R
HILL CITY      MOCLDY    90  63  40 S10       29.73R HX  91
NORTON         PTCLDY    88  61  40 SE6       29.73R
PHILLIPSBURG   CLEAR     90  63  40 SE9       29.72R HX  90
SMITH CENTER   CLEAR     86  64  48 SE13      29.74R
BELOIT         CLEAR     86  64  48 SE8       29.73R
HAYS           PTCLDY    90  63  40 S15       29.75R HX  90
RUSSELL        PTCLDY    88  63  43 S13       29.74R
CONCORDIA      PTCLDY    86  69  56 S13G23    29.76R HX  90
SALINA         CLEAR     88  67  49 S16       29.77R HX  91
TOPEKA         PTCLDY    88  70  55 S10       29.81R HX  93



USA.gov is the U.S. government's official web portal to all federal, state and local government web resources and services.